Location: Bydgoszcz
(53.1235°N, 18.0084°E)
Time: 20:22:14
(UTC+02:00)

ISS - Pass Details

Date: 25 April 2026
Orbit: 414 x 424 km, 51.6° (Epoch: 12 May)

Event Time Altitude Azimuth Distance (km) Brightness Sun altitude
Exits shadow 03:12:41 18° 150° (SSE) 1,110 -1.9 -16.7°
Maximum altitude 03:12:53 18° 145° (SE) 1,106 -1.8 -16.7°
Drops below altitude 10° 03:15:15 10° 100° (E) 1,503 -0.6 -16.4°
Sets 03:17:48 0° 81° (E) 2,373 0.8 -16.2°
